Regional Weather Roundup
Issued by NWS

Home | Current Version | Previous Version | Graphics & Text | Print | Product List | Glossary On
Versions: 1 2 3 4 5 6 7 8 9 10 11 12 13 14 15 16 17 18 19 20 21 22 23 24 25 26 27 28 29 30 31 32 33 34 35 36 37 38 39 40 41 42 43 44 45 46 47 48 49
442
ASUS45 KBOU 251007
RWRCO

WEATHER ROUNDUP FOR COLORADO
NATIONAL WEATHER SERVICE DENVER/BOULDER CO
400 AM MDT TUE APR 25 2017

NOTE: "FAIR" INDICATES FEW OR NO CLOUDS BELOW 12000 FEET WITH NO
SIGNIFICANT WEATHER AND/OR OBSTRUCTIONS TO VISIBILITY.

COZ001>005-013-030-031-251100-
...NORTHWEST COLORADO...

CITY           SKY/WX    TMP DP  RH WIND       PRES   REMARKS
CRAIG          MOCLDY    33  30  88 SE3       29.73R
HAYDEN         CLOUDY    34  28  80 W3        29.73R
MEEKER         MOCLDY    35  33  92 CALM      29.71F
MOUNT WERNER   NOT AVBL
STEAMBOAT SPGS CLOUDY    33  32  98 CALM      29.72S
WALDEN           N/A     30  27  86 SW7       29.70R WCI  23
$$

COZ006>008-011-251100-
...WEST CENTRAL VALLEYS...

CITY           SKY/WX    TMP DP  RH WIND       PRES   REMARKS
GRAND JUNCTION MOCLDY    44  38  79 SE14      29.67F
MONTROSE       LGT RAIN  42  36  79 SE14      29.75F
EAGLE          CLOUDY    38  33  82 SE5       29.74S
RIFLE          MOCLDY    39  36  89 CALM      29.73S
DELTA          CLOUDY    47  34  59 CALM      29.71S
NUCLA          MOCLDY    46  25  42 CALM      29.73F
$$

COZ017>023-064>068-251100-
...SOUTHWEST COLORADO...

CITY           SKY/WX    TMP DP  RH WIND       PRES   REMARKS
DURANGO        FAIR      43  30  60 W3        29.66F
CORTEZ         MOCLDY    48  31  51 NW8       29.67F
PAGOSA SPRINGS FAIR      40  31  70 CALM      29.70F
TELLURIDE      CLOUDY    35  30  83 CALM      29.79F
WOLF CREEK PAS CLOUDY    27  25  93 SW12G18   29.85S WCI  16
$$

COZ009-010-012-014-032>034-037-058>063-251100-
...CENTRAL COLORADO...

CITY           SKY/WX    TMP DP  RH WIND       PRES   REMARKS
ASPEN          CLOUDY    32  30  92 CALM      29.74R
BUENA VISTA    CLOUDY    34  29  82 N8        29.70F WCI  27
COPPER MTN     LGT SNOW  23  18  80 MISG      29.76F
BERTHOUD PASS  CLOUDY    16   5  62 MISG      29.72S
COTTONWOOD PAS CLOUDY    32  25  74 W13G21    29.73F WCI  22
GUNNISON       FLURRIES  34  30  85 S3        29.76R
KREMMLING      MOCLDY    37  36  93 S3        29.73R
LEADVILLE      LGT SNOW  25  21  85 CALM      29.73F FOG
MONARCH PASS   SNOW      23  21  93 W25       29.87R VSB 1/2 WCI   7
SALIDA         CLOUDY    36  33  89 W5        29.78R
SUNLIGHT       CLOUDY    23  21  93 SW5       29.80F WCI  17
WILKERSON PASS FLURRIES  25  21  86 W9G16     29.76S WCI  15
$$

COZ069>075-251100-
...SAN LUIS VALLEY/SANGRE DE CRISTO MOUNTAINS...

CITY           SKY/WX    TMP DP  RH WIND       PRES   REMARKS
ALAMOSA        FAIR      50  23  34 W10       29.65R
LA VETA PASS   MOCLDY    36  23  60 S15G36    29.84R
SAGUACHE       FAIR      39  30  70 NW18G24   29.69R
$$

COZ035-036-038>040-251100-
...NORTHERN COLORADO FRONT RANGE...

CITY           SKY/WX    TMP DP  RH WIND       PRES   REMARKS
DENVER INTL AP MOCLDY    41  38  89 SE6       29.58S
DMNS CITY PARK   N/A     46  37  70 MISG      29.59R
AURORA         MOCLDY    42  42  99 S5        29.60R
FRONT RANGE AP CLOUDY    43  41  93 CALM      29.60S
ERIE MUNI ARPT FAIR      44  41  90 CALM      29.60R
BOULDER MUN AP FAIR      43  41  93 SE3       29.59R
CENTENNIAL     CLOUDY    42  39  89 S5        29.59F
BROOMFIELD     FAIR      43  41  93 SE3       29.61R
FORT COLLINS   FAIR      41  40  96 S8        29.57S
LONGMONT       FAIR      44  42  93 CALM      29.60R
$$

COZ041-046-047-076>085-087-088-251100-
...PIKES PEAK/PALMER DIVIDE AND SOUTHERN FOOTHILLS...

CITY           SKY/WX    TMP DP  RH WIND       PRES   REMARKS
COLO. SPRINGS  FAIR      44  37  76 N22       29.59R
A. F. ACADEMY  CLOUDY    43  30  59 NE13      29.58F
SCHRIEVER AFB  FAIR      43  36  75 NW25G37   29.59R
ELLICOTT       FAIR     N/A N/A N/A N22G32    29.57R
FALCON         DRIZZLE   40  34  80 N13G25    29.62R
FORT CARSON    FAIR      47  31  53 NW26G37   29.55S
LIMON          CLOUDY    41  39  93 N21G29    29.59R
MONUMENT HILL  MOCLDY    34  32  93 CALM      29.64F
TRINIDAD       FAIR      56  25  30 SW7       29.52R
$$

COZ042>045-048>051-090-091-251100-
...NORTHEAST COLORADO...

CITY           SKY/WX    TMP DP  RH WIND       PRES   REMARKS
GREELEY ARPT   FAIR      45  43  93 NW3       29.57R
AKRON          LGT RAIN  42  40  92 N10       29.58S
BURLINGTON     NOT AVBL
WRAY           NOT AVBL
STERLING       RAIN      45  41  87 NW7       29.58R
HOLYOKE        LGT RAIN  45  41  87 NW8       29.57F
FORT MORGAN    RAIN      43  40  89 NW5       29.58S
$$

COZ086-089-092>099-251100-
...SOUTHEAST COLORADO...

CITY           SKY/WX    TMP DP  RH WIND       PRES   REMARKS
PUEBLO         FAIR      50  39  66 N22G28    29.51R
LA JUNTA       FAIR      52  40  63 NW17      29.47R
LAMAR          FAIR      55  34  45 W13       29.39R
SPRINGFIELD      N/A     47  32  56 W7        29.45S
$$




USA.gov is the U.S. government's official web portal to all federal, state and local government web resources and services.